Regional Weather Roundup
Issued by NWS Cleveland, OH

Home | Current Version | Previous Version | Graphics & Text | Print | Product List | Glossary On
Versions: 1 2 3 4 5 6 7 8 9 10 11 12 13 14 15 16 17 18 19 20 21 22 23 24 25 26 27 28 29 30 31 32 33 34 35 36 37 38 39 40 41 42 43 44 45 46 47 48 49 50
000
ASUS41 KCLE 012210
RWRCLE
OHIO REGIONAL WEATHER ROUNDUP
NATIONAL WEATHER SERVICE CLEVELAND, OH
600 PM EDT FRI AUG 01 2014

NOTE: "FAIR" INDICATES FEW OR NO CLOUDS BELOW 12,000 FEET WITH NO
SIGNIFICANT WEATHER AND/OR OBSTRUCTIONS TO VISIBILITY.

OHZ001>008-015>018-024>027-034-035-043-044-012300-
   NORTHWEST OHIO

CITY           SKY/WX    TMP DP  RH WIND       PRES   REMARKS
DEFIANCE       PTSUNNY   82  59  45 NW6       30.07F
FINDLAY        PTSUNNY   83  58  42 VRB3      30.06F
TOLEDO EXPRESS MOSUNNY   80  59  48 N5        30.07S
TOLEDO EXEC    MOSUNNY   79  57  46 NE5       30.08F
LIMA           MOSUNNY   82  57  42 VRB3      30.07F
$$

OHZ009>014-019>023-028>033-038-089-012300-
   NORTHEAST OHIO

CITY           SKY/WX    TMP DP  RH WIND       PRES   REMARKS
CLE-HOPKINS    PTSUNNY   79  62  56 N8        30.10F
CLE-LAKEFRONT  SUNNY     78  65  63 NE6       30.07F
CUY CO. ARPT   MOSUNNY   81  64  57 NE9       30.10F
LORAIN-ELYRIA  MOSUNNY   84  63  49 NE7       30.08F
ASHTABULA      SUNNY     78  63  59 N5        30.10F
AKRON-CANTON   MOSUNNY   80  59  48 NE5       30.10S
WOOSTER        MOSUNNY   79  64  60 CALM      30.09F
MANSFIELD      CLOUDY    67  62  84 NW7       30.12R
YOUNGSTOWN     PTSUNNY   77  64  64 CALM      30.10S
$$

OHZ042-051>053-060>062-070>072-077>081-012300-
  SOUTHWEST OHIO

CITY           SKY/WX    TMP DP  RH WIND       PRES   REMARKS
CINC-COVINGTON MOSUNNY   84  57  39 NE3       30.05F
CINC-LUNKEN    PTSUNNY   83  61  47 E3        30.04F
HAMILTON       SUNNY     83  59  44 CALM      30.06F
DAYTON         PTSUNNY   82  59  45 SE6       30.08F
WRIGHT-PAT AFB PTSUNNY   80  61  52 E1        30.06F
DAYTON GENERAL MOSUNNY   80  61  52 CALM      30.06F
WILMINGTON     SUNNY     80  60  50 CALM      30.07S
$$

OHZ036-037-039>041-045>050-054>059-063>069-073>076-082>088-012300-
  CENTRAL AND SOUTHEAST OHIO

CITY           SKY/WX    TMP DP  RH WIND       PRES   REMARKS
COLUMBUS       MOSUNNY   85  57  38 E5        30.05F
OSU AIRPORT    MOSUNNY   82  59  45 CALM      30.07F
BOLTON FIELD   MOSUNNY   82  63  51 N5        30.07F
RICKENBACK AFB MOSUNNY   85  51  31 S5        30.05F
NEWARK         SUNNY     83  59  44 CALM      30.06F
MARION         PTSUNNY   76  58  53 NW6       30.09F
LANCASTER      PTSUNNY   83  62  49 SE8       30.07S
ZANESVILLE     SUNNY     81  59  47 SE6       30.08R
NEW PHILLY     MOSUNNY   79  62  56 SE6       30.08S
$$



USA.gov is the U.S. government's official web portal to all federal, state and local government web resources and services.